Location: Seattle
(47.6064°N, 122.3308°W)
Time: 00:06:19
(UTC-07:00)

STRAND 1 - Pass Details

Date: 09 April 2023
Orbit: 767 x 779 km, 98.4° (Epoch: 02 June)

Event Time Altitude Azimuth Distance (km) Brightness Sun altitude
Rises 20:17:14 0° 12° (NNE) 3,250 ? -5.2°
Reaches altitude 10° 20:19:33 10° 11° (N) 2,319 ? -5.6°
Maximum altitude 20:24:39 76° 287° (WNW) 796 ? -6.4°
Drops below altitude 10° 20:29:44 10° 202° (SSW) 2,304 ? -7.2°
Sets 20:32:01 0° 201° (SSW) 3,228 ? -7.5°
